Regional Weather Roundup
Issued by NWS

Home | Current Version | Previous Version | Text Only | Print | Product List | Glossary On
Versions: 1 2 3 4 5 6 7 8 9 10 11 12 13 14 15 16 17 18 19 20 21 22 23 24 25 26 27 28 29 30 31 32 33 34 35 36 37 38 39 40 41 42 43 44 45 46 47 48 49 50
000
ASUS46 KLOX 170412
RWRCA

SOUTHERN CALIFORNIA WEATHER ROUNDUP
NATIONAL WEATHER SERVICE OXNARD CALIFORNIA
900 PM PDT WED APR 16 2014

NOTE: "FAIR" INDICATES FEW OR NO CLOUDS BELOW 12,000 FEET WITH NO
SIGNIFICANT WEATHER AND/OR OBSTRUCTIONS TO VISIBILITY.

  -  STATIONS PRECEEDED BY AN ASTERISK (*) ARE NOT NWS OR FAA
     STATIONS AND ARE NOT SUBJECT TO NWS AND FAA QUALITY CONTROL.

CAZ041-042-087-170500-
LA AND ORANGE COUNTY COASTAL AREAS


CITY           SKY/WX    TMP DP  RH WIND       PRES   REMARKS
L.A. DOWNTOWN  CLEAR     60  53  77 W3        29.83R
L.A. AIRPORT   PTCLDY    59  53  80 SW6       29.85R
LONG BEACH     CLEAR     60  51  72 CALM      29.84R

CITY           SKY/WX    TMP DP  RH WIND       PRES   REMARKS
AVALON           N/A     55 N/A N/A S2          N/A
FULLERTON      CLEAR     60  54  80 SW3       29.83R
*GETTY CENTER    N/A     54  52  94 N1          N/A
HAWTHORNE      CLEAR     60  51  72 W5        29.84R
*LEO CARRILLO    N/A     54  52  93 NE2         N/A
*LOS ALAMITOS  CLEAR     58  54  88 S3        29.85R
*REDONDO BEACH   N/A     58  53  83 CALM      29.83R
SANTA ANA      CLEAR     62  54  74 S6        29.84R
STA MONICA APT PTCLDY    62  53  72 SW3       29.84R
*UCLA            N/A     57  52  82 CALM      29.82R

$$

CAZ547-548-048-170500-
LA COUNTY VALLEYS AND INLAND EMPIRE


CITY           SKY/WX    TMP DP  RH WIND       PRES   REMARKS
BURBANK        CLEAR     61  52  72 S3        29.83R
VAN NUYS       CLEAR     62  50  64 SE3       29.83R

CITY           SKY/WX    TMP DP  RH WIND       PRES   REMARKS
CORONA AIRPORT CLEAR     61  52  72 W10       29.84R
*CHATSWORTH      N/A     63  52  66 SE3       29.81R
CHINO          CLEAR     61  53  75 W8        29.84R
*CLAREMONT       N/A     57  45  65 W2          N/A
MARCH AFB      CLEAR     62  47  59 NW3       29.85R
ONTARIO        CLEAR     64  51  62 W8        29.83R
*PASADENA        N/A     61  55  82 CALM        N/A
RIVERSIDE      CLEAR     64  51  62 W6        29.84R
SAN BERNARDINO CLEAR     64  46  52 SW7       29.83R
*SAN GABRIEL     N/A     63  51  66 CALM      29.81R
*SAN RAFAEL HI   N/A     55  51  85 SE2         N/A
*SAUGUS          N/A     61  50  66 SW8         N/A
*WHITEMAN AP   NOT AVBL
*WOODLAND HILL   N/A     61  48  63 E2          N/A

$$

CAZ054-055-170500-
LA AND SAN BERNARDINO COUNTY MOUNTAINS


CITY           SKY/WX    TMP DP  RH WIND       PRES   REMARKS
*ACTON           N/A     62  47  56 SE3         N/A
*BIG BEAR AIRP CLEAR     46  25  42 CALM      30.05R
*BIG PINES       N/A     52  28  40 CALM        N/A
*CHILAO          N/A     58  46  65 S2          N/A
MT WILSON NWS    N/A     54  39  58 CALM        N/A
SANDBERG       CLEAR     60  28  29 NW18      29.96R
*WARM SPRINGS    N/A     62  22  21 W13         N/A

$$

CAZ028-029-059-060-099-170500-
ANTELOPE VALLEY AND SURROUNDING AREAS


CITY           SKY/WX    TMP DP  RH WIND       PRES   REMARKS
LANCASTER      CLEAR     67  22  18 W14       29.83R
PALMDALE       CLEAR     68  42  38 SW12      29.85R
*POPPY PARK      N/A     68  19  15 W16G33      N/A

CITY           SKY/WX    TMP DP  RH WIND       PRES   REMARKS
29 PALMS       CLEAR     79  29  16 NE5       29.82R
BARSTOW/DAGGET CLEAR     79  27  14 W15       29.77R
BISHOP         PTCLDY    69  21  16 N13       29.85R
CHINA LAKE     CLEAR     71  31  22 S8        29.75R
EDWARDS AFB    PTCLDY    69  26  19 SW15      29.80R
MOJAVE         FAIR      68  32  26 NW32G38   29.79R
NEEDLES        CLEAR     86  12   6 S3        29.68R
VICTORVILLE    CLEAR     70  32  24 W7        29.85R

$$

CAZ039-040-170500-
VENTURA AND SANTA BARBARA COUNTY COAST


CITY           SKY/WX    TMP DP  RH WIND       PRES   REMARKS
CAMARILLO      CLEAR     58  53  84 CALM      29.83R
NWS OXNARD       N/A     57  52  84 CALM      29.83R
OXNARD AIRPORT CLEAR     57  53  86 CALM      29.83R
*POINT MUGU    PTCLDY    58  53  84 SW3       29.83R HAZE
SBA APT/GOLETA CLEAR     58  53  84 E6        29.81R
*SANTA BARBARA   N/A     59  53  79 CALM      29.90R
*VENTURA         N/A     60  52  74 CALM      29.87S

$$

CAZ044-045-170500-
VENTURA COUNTY VALLEYS


CITY           SKY/WX    TMP DP  RH WIND       PRES   REMARKS
*SIMI VALLEY     N/A     59  52  77 CALM      29.80R
*OJAI            N/A     56  51  82 CALM      29.78R
*FILLMORE        N/A     59  52  76 CALM      29.75R

$$

CAZ053-170500-
VENTURA COUNTY MOUNTAINS


CITY           SKY/WX    TMP DP  RH WIND       PRES   REMARKS
*LOCKWOOD VLY    N/A     48  30  49 MISG        N/A
*ROSE VALLEY     N/A     55  46  71 MISG        N/A

$$

CAZ034-035-036-170500-
CENTRAL COAST AND SANTA YNEZ VALLEY


CITY           SKY/WX    TMP DP  RH WIND       PRES   REMARKS
SAN LUIS OBISP CLEAR     54  50  86 NW8       29.83R
SANTA MARIA    CLEAR     56  49  77 N6        29.84R

CITY           SKY/WX    TMP DP  RH WIND       PRES   REMARKS
*CAL POLY SLO    N/A     55  52  88 W5G12       N/A
*CAMBRIA         N/A     51  49  93 CALM      29.71S
*LOMPOC        CLOUDY    55  48  76 W7        29.86R
*PISMO BEACH     N/A     56  51  83 NE10      29.83R
*SANTA YNEZ    FAIR      54  50  87 SW5       29.84S

$$

CAZ037-038-051-170500-
SAN LUIS OBISPO COUNTY INTERIOR AND CUYAMA VALLEY


CITY           SKY/WX    TMP DP  RH WIND       PRES   REMARKS
*CUYAMA          N/A     67  33  28 CALM      29.69R
PASO ROBLES    CLEAR     68  42  38 NW17      29.81R

$$

CAZ032-033-061-170500-
SOUTHERN DESERTS


CITY           SKY/WX    TMP DP  RH WIND       PRES   REMARKS
BLYTHE         CLEAR     84  24  11 S12       29.68R
IMPERIAL       CLEAR     79  38  22 SW7       29.67R
PALM SPRINGS   CLEAR     82  44  26 NW18      29.70R
THERMAL        CLEAR     82  40  22 NW6       29.66R

$$

ELSEWHERE ACROSS THE WESTERN UNITED STATES AND MEXICO


CITY           SKY/WX    TMP DP  RH WIND       PRES   REMARKS
DENVER, CO     CLOUDY    42  26  53 E6        30.08R
GRAND CANYON,  CLEAR     46  18  32 NE5       30.03R
HONOLULU, HI   MOSUNNY   79  63  57 NE15G21   30.06R
KAHULUI, MAUI  PTCLDY    77  64  65 NE21G31   30.03R
LAKE TAHOE, CA CLEAR     50  37  61 CALM      30.03R
LAS VEGAS, NV  PTCLDY    78  19  11 SE3       29.72R
MAMMOTH LAKES, FAIR      52  32  46 W7        30.04R
MEXICO CITY, M PTCLDY    64  46  52 SE5       30.24R
PHOENIX, AZ    CLEAR     82  21  10 SW6       29.70R
PORTLAND, OR   CLOUDY    55  48  77 CALM      30.03S
RENO, NV       PTCLDY    63  25  23 NE3       29.96R
SALT LAKE CITY PTCLDY    49  16  26 CALM      30.02R
SAN DIEGO, CA  MOCLDY    62  52  69 SE7       29.86R
SAN FRANCISCO, CLEAR     57  48  72 W26       29.85R
SAN JOSE, CA   CLEAR     61  49  64 W9        29.84R
SEATTLE, WA    CLOUDY    51  48  89 SE8       29.98F
TIJUANA, MEX   CLEAR     59  50  72 N5        29.87R

$$

STATION/POSITION TIME  TEMP    WIND        PRES    VSBY  WAVE
                       AIR SEA DIR/SP/G                  HT/PER
                 (UTC) (F)     (DEG/KT/KT) (MB)    (MI)  (FT/S)
POINT ARGUELLO B NOT AVBL
WEST SANTA BARBA 0400   55 55  310/ 14/ 17 1009.4R         9/11
POINT CONCEPTION NOT AVBL
EAST SANTA BARBA NOT AVBL
SANTA MONICA BAY 0400   58 61  120/  4/  4 1009.9R         3/12



USA.gov is the U.S. government's official web portal to all federal, state and local government web resources and services.